sat.trackr.live / text

‹ back to catalog

STARLINK-35172

NORAD 65533 · 2025-200P

PAYLOAD ACTIVE UNKNOWN

§ Identity

Operator
Country
US
Launch date
2025-09-06
Launch site
AFWTR
Launch vehicle
Mass (kg)
RCS (m²)

Purposes: comms

External: N2YO · Heavens-Above · Gunter

§ Orbital elements

Epoch: 2026-05-25T03:45:37.708416Z

Period
95.64 min
Inclination
97.4479°
Eccentricity
0.0002264
Mean motion
15.05671697 rev/d
Perigee alt
547.9 km
Apogee alt
551.0 km
Semi-major
6,927.6 km
B*
5.1819e-4
RAAN
214.7532°
Arg perigee
131.0216°
Mean anomaly
229.1207°
Rev number
4,063

§ Raw data

STARLINK-351721 65533U 25200P   26145.15668644  .00007431  00000+0  51819-3 0  99902 65533  97.4479 214.7532 0002264 131.0216 229.1207 15.05671697 40639

JSON: /api/v1/satellites/65533 · /tle

For live sub-satellite position, see the globe view (requires WebGL).

§ Visibility from observer

Set your observer location to see the next 7 days of passes ≥ 10°. The values pass through the URL so the page stays shareable.

No JS? Fill the form by hand. The geolocation button needs JavaScript.